Location: Kecksburg
(40.1848°N, 79.4606°W)
Time: 05:48:45
(UTC+00:00)

Daily predictions for brighter satellites

Satellite Brightness Start Highest point End
(mag) Time Altitude Azimuth Time Altitude Azimuth Time Altitude Azimuth
PSLV R/B 3.6 00:00:30 10° S 00:04:31 68° WSW 00:08:34 10° NNW
RESURS DK-1 2.4 00:02:27 10° NNW 00:05:59 67° NW 00:05:59 67° NW
Okean 2 Rocket 2.9 00:03:19 10° S 00:07:44 88° W 00:08:01 78° N
COSMOS 2406 4.4 00:04:47 10° N 00:07:52 27° NNE 00:07:52 27° NNE
Nadezhda 4 Rocket 3.9 00:03:53 10° N 00:10:13 86° E 00:16:26 10° S
ATLAS 2AS CENTAUR R/B 4.3 00:07:20 10° N 00:10:49 18° NNE 00:10:49 18° NNE
ISS -1.6 00:12:14 10° W 00:14:17 23° NW 00:14:17 23° NW
ATLAS 2A CENTAUR R/B 4.5 00:08:15 10° SW 00:15:30 20° SSW 00:17:16 17° SSE
SJ 16-02 1.5 00:11:15 10° SSW 00:15:04 67° SW 00:15:04 67° SW
Cosmos 1536 Rocket 3.9 00:15:26 10° NNW 00:19:15 60° NW 00:19:15 60° NW
Cosmos 2195 Rocket 4.3 00:17:42 10° N 00:24:02 73° E 00:25:05 61° SE
ATLAS 5 CENTAUR R/B 3.7 00:20:33 10° WNW 00:24:50 31° WSW 00:29:55 10° S
Cosmos 371 Rocket 4.0 00:28:05 10° SSW 00:31:39 49° SW 00:31:39 49° SW
Cosmos 489 Rocket 4.3 00:28:53 10° NNW 00:34:48 79° N 00:34:48 79° N
USA 281 3.9 01:07:16 47° NNW 01:07:16 47° NNW 01:11:45 10° NNW
Cosmos 2082 Rocket 4.1 01:24:31 10° NW 01:28:04 25° W 01:28:04 25° W
Cosmos 2344 4.4 01:39:38 10° NW 01:45:44 57° NW 01:45:44 57° NW
Cosmos 2237 Rocket 4.2 08:43:08 21° NE 08:43:08 21° NE 08:44:59 10° NNE
Cosmos 2278 Rocket 4.2 08:43:28 21° SE 08:43:28 21° SE 08:45:20 10° SE
Cosmos 1943 Rocket 4.3 08:46:29 18° SE 08:46:29 18° SE 08:47:49 10° SE
USA 267 3.6 08:47:56 10° NE 08:53:32 59° E 08:53:32 59° E
ACS3 Solar Sail 3.9 09:20:02 10° N 09:20:28 12° N 09:20:28 12° N
USA 234 4.3 09:23:24 10° E 09:29:18 37° NNE 09:31:50 28° NNW
Cosmos 1864 Rocket 4.4 09:30:11 43° N 09:32:27 90° W 09:38:49 10° S
Cosmos 1420 Rocket 4.4 09:38:44 52° N 09:38:44 52° N 09:42:43 10° NNE
Cosmos 2251 Rocket 3.9 09:38:22 42° N 09:40:02 64° ENE 09:45:20 10° SSE
SL-16 R/B 3.1 09:37:34 10° S 09:43:00 48° ESE 09:48:27 10° NE
PAYLOAD A 4.0 09:40:56 10° N 09:45:53 74° NNW 09:45:53 74° NNW
Cosmos 1725 Rocket 3.8 09:40:30 10° N 09:46:49 77° W 09:53:05 10° S
Cosmos 2233 Rocket 4.1 09:42:29 10° N 09:48:48 75° E 09:55:01 10° SSE
BREEZE-M DEB (TANK) 3.8 09:54:01 25° ESE 09:54:01 25° ESE 09:55:48 10° E
CZ-2C R/B 3.8 09:55:59 10° N 09:58:22 26° NNW 09:58:22 26° NNW
SJ-11-01 4.4 10:00:12 10° NNE 10:04:54 75° ESE 10:09:35 10° S
SL-08 R/B 4.4 10:01:34 10° NNW 10:07:39 66° W 10:13:48 10° S
Cosmos 1802 Rocket 4.2 10:06:59 37° NW 10:08:42 46° W 10:14:33 10° SSW
Cosmos 1190 Rocket 3.9 10:15:29 27° NNW 10:18:23 69° WSW 10:23:32 10° S
Aureole 3 4.0 10:13:46 10° S 10:19:52 80° W 10:25:00 10° N
SKYMED 2 4.1 10:15:44 10° SSE 10:19:59 58° ENE 10:24:15 10° N
SJ 16-02 1.1 10:18:05 26° NNW 10:20:25 89° WNW 10:24:42 10° SSE
Cosmos 676 Rocket 4.1 10:15:42 11° NNW 10:20:48 75° ENE 10:25:58 10° SSE
COSMO-SKYMED 1 3.7 10:18:55 10° SE 10:22:47 41° ENE 10:26:41 10° N
Cosmos 2278 Rocket 3.6 10:25:22 20° SW 10:25:22 20° SW 10:28:00 10° SSW
Cosmos 2237 Rocket 3.5 10:24:59 22° NW 10:24:59 22° NW 10:28:18 10° N
Cosmos 1943 Rocket 3.8 10:28:04 16° SW 10:28:04 16° SW 10:29:44 10° SSW
Cosmos 2056 Rocket 3.7 10:21:55 13° SW 10:26:33 51° WNW 10:31:49 10° N
USA 229 DEB 3.3 10:25:14 10° SW 10:31:02 84° NW 10:37:32 10° NNE
USA 229 3.3 10:25:28 10° SW 10:31:15 85° NW 10:37:44 10° NNE
Cosmos 2016 Rocket 4.5 10:25:42 10° NNW 10:31:24 36° W 10:37:03 10° SSW
Cosmos 1954 Rocket 3.9 10:28:36 17° NNW 10:32:32 63° WSW 10:37:35 10° S
Cosmos 1943 4.4 10:28:25 10° S 10:33:41 44° ESE 10:38:59 10° NE
Cosmos 2369 Rocket 2.9 10:30:17 10° NNW 10:35:52 54° ENE 10:41:26 10° SE
USA 267 3.7 10:31:10 10° NE 10:37:12 41° NNW 10:40:54 22° W
Cosmos 1674 Rocket 4.1 10:33:51 10° S 10:38:11 60° E 10:42:33 10° NNE
Lacrosse 5 rocket 3.5 10:39:14 10° N 10:40:08 11° NNE 10:41:02 10° NE
IRS-1D 3.4 10:36:57 10° N 10:41:48 60° WNW 10:46:38 10° SSW
Cosmos 1484 Rocket 3.8 10:39:57 10° NNE 10:43:20 44° E 10:46:41 10° S
Cosmos 1400 Rocket 3.3 10:40:14 10° N 10:43:51 53° ENE 10:47:25 10° SSE
SWARM C 4.4 10:40:40 10° S 10:43:58 88° W 10:47:18 10° N
SWARM A 4.3 10:40:48 10° S 10:44:05 76° E 10:47:24 10° N
Cosmos 1869 3.4 10:47:38 22° NW 10:49:24 37° W 10:52:39 10° SSW
Lacrosse 4 Rocket 4.2 10:48:56 10° NE 10:49:26 10° NE 10:49:55 10° NE
Helios 1A Rocket 2.3 10:46:16 10° S 10:49:36 71° WSW 10:52:59 10° NNW
Cosmos 371 Rocket 3.4 10:45:35 12° NNW 10:49:56 52° WSW 10:54:36 10° S
ATLAS 3B R/B 3.0 10:44:41 10° SW 10:52:06 65° NW 10:59:55 10° NNE
Cosmos 968 Rocket 3.8 10:47:20 10° NNW 10:52:36 70° ENE 10:57:48 10° SSE
Cosmos 1812 2.2 10:53:54 18° NNW 10:55:46 43° W 10:58:32 10° SSW
CZ-4 R/B 4.1 10:52:29 10° N 10:57:05 46° WNW 11:01:35 10° SW
Cosmos 304 Rocket 4.2 10:53:23 12° NW 10:57:31 41° WSW 11:01:57 10° S
CENTAUR R/B 3.6 10:49:45 10° NNW 10:58:18 74° NE 11:07:48 10° SE
Cosmos 2151 Rocket 3.6 10:55:19 10° N 10:59:49 84° E 11:04:15 10° S
Meteor 1-21 Rocket 4.3 10:55:43 10° SSW 11:01:20 54° WNW 11:06:53 10° N
Cosmos 1110 Rocket 4.0 10:56:49 10° SSW 11:02:03 67° WNW 11:07:21 10° NNE
Cosmos 1378 Rocket 3.8 11:01:41 10° SSW 11:05:45 44° WNW 11:09:51 10° N
Sich 1 Rocket 4.1 11:02:53 10° N 11:07:23 65° E 11:11:49 10° SSE
NOAA 12 4.4 11:04:45 10° N 11:09:44 42° WNW 11:14:42 10° SW
Cosmos 2242 Rocket 4.5 11:06:09 10° SW 11:09:49 26° WNW 11:13:32 10° NNW
Cosmos 1656 Rocket 4.2 11:06:28 10° NW 11:11:42 39° WSW 11:16:52 10° S
USA 234 3.3 11:05:24 10° SE 11:11:57 76° SW 11:18:32 10° NW
Thor Agena Rocket 4.5 11:07:08 10° NNE 11:12:13 54° E 11:17:12 10° S
Cosmos 1818 4.2 11:08:37 10° SSW 11:13:55 60° ESE 11:19:16 10° NE
Okean 1 Rocket 3.1 11:12:30 10° N 11:16:50 81° E 11:21:07 10° S
Cosmos 332 Rocket 3.9 11:14:02 10° NNW 11:18:50 80° ENE 11:23:35 10° SSE
CZ-3 R/B 3.1 11:08:03 10° WSW 11:19:00 34° SSW 11:23:43 10° SE
Meteor 2-17 Rocket 4.4 11:14:27 10° SSW 11:20:29 71° W 11:26:35 10° N
Cosmos 1441 Rocket 3.4 11:23:21 10° S 11:26:39 63° E 11:29:58 10° NNE
SL-16 R/B 3.2 11:22:42 10° WSW 11:27:19 25° NW 11:31:59 10° N
CZ-2D R/B 4.2 11:25:53 10° NNE 11:28:55 42° E 11:31:56 10° S
IGS 5A 3.3 11:26:52 10° N 11:30:51 68° WNW 11:34:48 10° SSW
Cosmos 1452 Rocket 3.8 11:30:39 10° SW 11:35:39 45° WNW 11:40:41 10° N
